• In Belarus
  • List of Countries
  • For 7 days
  • Water Temperature
  • Satellite Maps
  • Weather Map
  • Weather Widgets
  • user-avatar
    Login

    Hourly Weather Spiez

    Today, 24 June, Sunday

    Time Temperature Precipitation Wind Pressure Humidity
    00:00 +11°C° 0 mm 1 mps 705 mmHg 91%
    01:00 +11°C° 0 mm 1 mps 705 mmHg 91%
    02:00 +11°C° 0 mm 1 mps 705 mmHg 90%
    03:00 +10°C° 0 mm 1 mps 705 mmHg 89%
    04:00 +10°C° 0 mm 1 mps 704 mmHg 88%
    05:00 +12°C° 0 mm 1 mps 704 mmHg 82%
    06:00 +13°C° 0 mm 1 mps 705 mmHg 76%
    07:00 +15°C° 0 mm 1 mps 705 mmHg 70%
    08:00 +16°C° 0 mm 1 mps 705 mmHg 64%
    09:00 +19°C° 0 mm 1 mps 705 mmHg 59%
    10:00 +19°C° 0 mm 2 mps 705 mmHg 54%
    11:00 +20°C° 0 mm 2 mps 705 mmHg 53%
    12:00 +21°C° 0 mm 2 mps 705 mmHg 52%
    13:00 +23°C° 0 mm 2 mps 705 mmHg 51%
    14:00 +23°C° 0.3 mm 2 mps 704 mmHg 53%
    15:00 +21°C° 0.3 mm 3 mps 704 mmHg 55%
    16:00 +21°C° 0.3 mm 3 mps 704 mmHg 58%
    17:00 +20°C° 0.3 mm 3 mps 704 mmHg 65%
    18:00 +19°C° 0.3 mm 2 mps 704 mmHg 73%
    19:00 +18°C° 0.3 mm 2 mps 704 mmHg 80%
    20:00 +17°C° 0.1 mm 2 mps 704 mmHg 85%
    21:00 +15°C° 0.1 mm 2 mps 704 mmHg 89%
    22:00 +14°C° 0.1 mm 1 mps 704 mmHg 94%
    23:00 +13°C° 0 mm 1 mps 704 mmHg 94%

    Tomorrow, 25 June, Monday

    Time Temperature Precipitation Wind Pressure Humidity
    00:00 +13°C° 0 mm 1 mps 704 mmHg 95%
    01:00 +12°C° 0 mm 1 mps 704 mmHg 96%
    02:00 +12°C° 0 mm 1 mps 704 mmHg 95%
    03:00 +11°C° 0 mm 1 mps 703 mmHg 95%
    04:00 +11°C° 0 mm 1 mps 703 mmHg 95%
    05:00 +12°C° 0 mm 1 mps 704 mmHg 91%
    06:00 +13°C° 0 mm 2 mps 704 mmHg 88%
    07:00 +14°C° 0 mm 2 mps 704 mmHg 84%
    08:00 +16°C° 0 mm 2 mps 704 mmHg 76%
    09:00 +18°C° 0 mm 3 mps 704 mmHg 67%
    10:00 +19°C° 0 mm 3 mps 705 mmHg 59%
    11:00 +20°C° 0 mm 3 mps 705 mmHg 58%
    12:00 +21°C° 0 mm 4 mps 705 mmHg 56%
    13:00 +22°C° 0 mm 4 mps 705 mmHg 54%
    14:00 +22°C° 0 mm 4 mps 704 mmHg 55%
    15:00 +22°C° 0 mm 4 mps 704 mmHg 56%
    16:00 +22°C° 0 mm 4 mps 704 mmHg 57%
    17:00 +21°C° 0 mm 3 mps 705 mmHg 62%
    18:00 +20°C° 0 mm 3 mps 705 mmHg 68%
    19:00 +19°C° 0 mm 3 mps 705 mmHg 73%
    20:00 +17°C° 0 mm 2 mps 705 mmHg 80%
    21:00 +15°C° 0 mm 2 mps 705 mmHg 87%
    22:00 +13°C° 0 mm 2 mps 705 mmHg 95%
    23:00 +13°C° 0 mm 2 mps 705 mmHg 95%

    Day after tomorrow, 26 June, Tuesday

    Time Temperature Precipitation Wind Pressure Humidity
    00:00 +12°C° 0 mm 1 mps 705 mmHg 95%
    01:00 +12°C° 0 mm 1 mps 705 mmHg 95%
    02:00 +12°C° 0 mm 1 mps 705 mmHg 94%
    03:00 +12°C° 0 mm 1 mps 704 mmHg 93%
    04:00 +11°C° 0 mm 1 mps 704 mmHg 93%
    05:00 +13°C° 0 mm 1 mps 704 mmHg 88%
    06:00 +14°C° 0 mm 1 mps 705 mmHg 83%
    07:00 +16°C° 0 mm 1 mps 705 mmHg 78%
    08:00 +18°C° 0 mm 2 mps 705 mmHg 70%
    09:00 +19°C° 0 mm 2 mps 705 mmHg 63%
    10:00 +21°C° 0 mm 2 mps 705 mmHg 55%
    11:00 +22°C° 0 mm 3 mps 705 mmHg 54%
    12:00 +24°C° 0 mm 3 mps 705 mmHg 52%
    13:00 +25°C° 0 mm 3 mps 705 mmHg 50%
    14:00 +25°C° 0 mm 3 mps 705 mmHg 52%
    15:00 +25°C° 0 mm 3 mps 705 mmHg 54%
    16:00 +25°C° 0 mm 3 mps 705 mmHg 55%
    17:00 +24°C° 0 mm 3 mps 705 mmHg 61%
    18:00 +23°C° 0 mm 2 mps 705 mmHg 68%
    19:00 +21°C° 0 mm 2 mps 705 mmHg 74%
    20:00 +19°C° 0 mm 2 mps 705 mmHg 81%
    21:00 +18°C° 0 mm 1 mps 705 mmHg 88%
    22:00 +15°C° 0 mm 1 mps 705 mmHg 95%
    23:00 +14°C° 0 mm 1 mps 705 mmHg 95%

    27 June, Wednesday

    Time Temperature Precipitation Wind Pressure Humidity
    00:00 +14°C° 0 mm 1 mps 705 mmHg 95%
    01:00 +13°C° 0 mm 1 mps 705 mmHg 95%
    02:00 +13°C° 0 mm 1 mps 704 mmHg 95%
    03:00 +13°C° 0 mm 1 mps 704 mmHg 95%
    04:00 +13°C° 0 mm 1 mps 704 mmHg 95%
    05:00 +14°C° 0 mm 1 mps 704 mmHg 90%
    06:00 +16°C° 0 mm 1 mps 705 mmHg 86%
    07:00 +17°C° 0 mm 0 mps 705 mmHg 81%
    08:00 +20°C° 0 mm 1 mps 705 mmHg 73%
    09:00 +22°C° 0 mm 1 mps 705 mmHg 64%
    10:00 +24°C° 0 mm 2 mps 705 mmHg 56%
    11:00 +25°C° 0 mm 2 mps 705 mmHg 53%
    12:00 +25°C° 0 mm 2 mps 705 mmHg 50%
    13:00 +26°C° 0 mm 2 mps 705 mmHg 48%
    14:00 +26°C° 0 mm 3 mps 705 mmHg 49%
    15:00 +26°C° 0 mm 3 mps 704 mmHg 51%
    16:00 +26°C° 0 mm 3 mps 704 mmHg 52%
    17:00 +25°C° 0 mm 2 mps 704 mmHg 59%
    18:00 +24°C° 0 mm 2 mps 704 mmHg 66%
    19:00 +23°C° 0 mm 2 mps 704 mmHg 73%
    20:00 +20°C° 0 mm 2 mps 704 mmHg 80%
    21:00 +19°C° 0 mm 1 mps 703 mmHg 87%
    22:00 +16°C° 0 mm 1 mps 703 mmHg 94%
    23:00 +15°C° 0 mm 1 mps 703 mmHg 94%

    28 June, Thursday

    Time Temperature Precipitation Wind Pressure Humidity
    00:00 +14°C° 0 mm 1 mps 703 mmHg 95%
    01:00 +14°C° 0 mm 1 mps 703 mmHg 95%
    02:00 +14°C° 0 mm 1 mps 703 mmHg 93%
    03:00 +13°C° 0 mm 1 mps 702 mmHg 92%
    04:00 +13°C° 0 mm 1 mps 702 mmHg 90%
    05:00 +14°C° 0 mm 1 mps 702 mmHg 84%
    06:00 +16°C° 0 mm 1 mps 703 mmHg 78%
    07:00 +19°C° 0 mm 1 mps 703 mmHg 71%
    08:00 +19°C° 0 mm 2 mps 703 mmHg 64%
    09:00 +21°C° 0 mm 2 mps 703 mmHg 57%
    10:00 +22°C° 0 mm 3 mps 703 mmHg 50%
    11:00 +24°C° 0 mm 3 mps 702 mmHg 48%
    12:00 +25°C° 0 mm 3 mps 702 mmHg 46%
    13:00 +26°C° 0 mm 3 mps 702 mmHg 44%
    14:00 +26°C° 0 mm 3 mps 702 mmHg 45%
    15:00 +26°C° 0 mm 3 mps 701 mmHg 45%
    16:00 +25°C° 0 mm 3 mps 701 mmHg 46%
    17:00 +24°C° 0 mm 3 mps 701 mmHg 53%
    18:00 +22°C° 0 mm 3 mps 701 mmHg 59%
    19:00 +21°C° 0 mm 2 mps 701 mmHg 66%
    20:00 +19°C° 0 mm 2 mps 701 mmHg 74%
    21:00 +16°C° 0 mm 2 mps 701 mmHg 81%
    22:00 +14°C° 0 mm 1 mps 701 mmHg 89%
    23:00 +14°C° 0 mm 1 mps 701 mmHg 88%

    29 June, Friday

    Time Temperature Precipitation Wind Pressure Humidity
    00:00 +13°C° 0 mm 1 mps 701 mmHg 87%
    01:00 +13°C° 0 mm 1 mps 701 mmHg 86%
    02:00 +12°C° 0 mm 1 mps 701 mmHg 84%
    03:00 +12°C° 0 mm 1 mps 701 mmHg 82%
    04:00 +12°C° 0 mm 1 mps 700 mmHg 80%
    05:00 +14°C° 0 mm 1 mps 701 mmHg 75%
    06:00 +15°C° 0 mm 1 mps 701 mmHg 69%
    07:00 +18°C° 0 mm 1 mps 701 mmHg 64%
    08:00 +18°C° 0 mm 2 mps 701 mmHg 61%
    09:00 +20°C° 0 mm 2 mps 702 mmHg 57%
    10:00 +22°C° 0 mm 3 mps 702 mmHg 54%
    11:00 +22°C° 0 mm 3 mps 702 mmHg 53%
    12:00 +24°C° 0 mm 3 mps 702 mmHg 53%
    13:00 +25°C° 0 mm 3 mps 702 mmHg 52%
    14:00 +25°C° 0 mm 4 mps 702 mmHg 54%
    15:00 +25°C° 0 mm 4 mps 702 mmHg 55%
    16:00 +25°C° 0 mm 4 mps 702 mmHg 57%
    17:00 +24°C° 0 mm 3 mps 702 mmHg 62%
    18:00 +22°C° 0 mm 3 mps 702 mmHg 67%
    19:00 +21°C° 0 mm 2 mps 702 mmHg 72%
    20:00 +19°C° 0 mm 2 mps 702 mmHg 78%
    21:00 +17°C° 0 mm 2 mps 702 mmHg 85%
    22:00 +15°C° 0 mm 2 mps 702 mmHg 92%
    23:00 +14°C° 0 mm 1 mps 702 mmHg 90%
    Show more